Allentown, PA

12:38 AM EST on December 14, 2019 (GMT -0500)
Allentown

Weather History for KXLL - June, 2019

Change the Weather History Date:

Tuesday, June 11, 2019

  Actual Average (KABE) Record (KABE)
Temperature  
Mean Temperature - -  
Max Temperature - 79 °F 94 °F (1984)
Min Temperature - 57 °F 39 °F (1972)
Moisture  
Dew Point -    
Average Humidity    
Maximum Humidity    
Minimum Humidity    
Precipitation  
Precipitation 0.05 in - - ()
Sea Level Pressure  
Sea Level Pressure 29.99 in    
Wind  
Wind Speed 7 mph ()    
Max Wind Speed 21 mph    
Max Gust Speed 30 mph    
Visibility 9.3 miles    
Events Rain    
Averages and records for this station are not official NWS values.
T = Trace of Precipitation, MM = Missing Value Source: Averaged Metar Reports

Daily Weather History Graph

Daily Weather History Graph

Search for Another Location

Airport or City:

Astronomy

Jun. 11, 2019 Rise Set
Actual Time 5:30 AM EDT 8:32 PM EDT
Civil Twilight 4:57 AM EDT 9:05 PM EDT
Nautical Twilight 4:15 AM EDT 9:47 PM EDT
Astronomical Twilight 3:26 AM EDT 10:37 PM EDT
Moon 2:27 PM EDT (6/11) 2:15 AM EDT (6/11)
Length of Visible Light 16h 07m
Length of Day
15h 01m
Waxing Gibbous, 66% of the Moon is Illuminated
Jun 11
Waxing Gibbous
Jun 17
Full
Jun 25
Last Quarter
Jul 2
New
Jul 9
First Quarter

Hourly Weather History & Observations

Time (EDT) Temp. Dew Point Humidity Pressure Visibility Wind Dir Wind Speed Gust Speed Precip Events Conditions
12:15 AM - - N/A% 29.86 in 7.0 mi Calm Calm - N/A   Overcast
12:35 AM - - N/A% 29.86 in 5.0 mi Calm Calm - N/A   Haze
12:55 AM - - N/A% 29.86 in 4.0 mi WNW 3.5 mph - N/A   Haze
1:15 AM - - N/A% 29.85 in 5.0 mi WSW 4.6 mph - N/A   Haze
1:35 AM - - N/A% 29.85 in 5.0 mi WSW 4.6 mph - N/A   Haze
1:55 AM - - N/A% 29.85 in 5.0 mi West 5.8 mph - N/A   Haze
2:15 AM - - N/A% 29.85 in 5.0 mi West 5.8 mph - N/A Rain Light Rain
2:35 AM - - N/A% 29.85 in 5.0 mi WSW 3.5 mph - N/A Rain Light Rain
2:55 AM - - N/A% 29.85 in 5.0 mi Calm Calm - 0.01 in Rain Rain
3:15 AM - - N/A% 29.85 in 5.0 mi WSW 3.5 mph - 0.02 in Rain Light Rain
3:35 AM - - N/A% 29.85 in 7.0 mi West 3.5 mph - 0.03 in Rain Light Rain
3:55 AM - - N/A% 29.86 in 10.0 mi West 4.6 mph - 0.03 in Rain Light Rain
4:15 AM - - N/A% 29.86 in 10.0 mi West 5.8 mph - N/A Rain Light Rain
4:35 AM - - N/A% 29.87 in 10.0 mi West 5.8 mph - N/A   Overcast
4:55 AM - - N/A% 29.88 in 10.0 mi West 5.8 mph - N/A Rain Light Rain
5:15 AM - - N/A% 29.89 in 10.0 mi West 4.6 mph - 0.01 in Rain Light Rain
5:35 AM - - N/A% 29.90 in 10.0 mi West 5.8 mph - 0.01 in   Overcast
5:55 AM - - N/A% 29.91 in 10.0 mi WNW 6.9 mph 17.3 mph 0.01 in   Overcast
6:15 AM - - N/A% 29.93 in 10.0 mi NW 12.7 mph 19.6 mph N/A   Overcast
6:35 AM - - N/A% 29.94 in 10.0 mi NW 8.1 mph - N/A   Overcast
6:55 AM - - N/A% 29.95 in 10.0 mi NW 13.8 mph 17.3 mph N/A   Overcast
7:15 AM - - N/A% 29.96 in 10.0 mi NW 12.7 mph 23.0 mph N/A   Mostly Cloudy
7:35 AM - - N/A% 29.97 in 10.0 mi NNW 9.2 mph 20.7 mph N/A   Mostly Cloudy
7:55 AM - - N/A% 29.98 in 10.0 mi NW 9.2 mph 19.6 mph N/A   Mostly Cloudy
8:15 AM - - N/A% 29.98 in 10.0 mi NW 12.7 mph 19.6 mph N/A   Scattered Clouds
8:35 AM - - N/A% 29.99 in 10.0 mi NW 16.1 mph 20.7 mph N/A   Scattered Clouds
8:55 AM - - N/A% 30.00 in 10.0 mi NNW 15.0 mph 24.2 mph N/A   Scattered Clouds
9:15 AM - - N/A% 30.00 in 10.0 mi NNW 16.1 mph 19.6 mph N/A   Scattered Clouds
9:35 AM - - N/A% 30.00 in 10.0 mi NW 9.2 mph - N/A   Clear
9:55 AM - - N/A% 30.00 in 10.0 mi NNW 15.0 mph 18.4 mph N/A   Clear
10:15 AM - - N/A% 30.01 in 10.0 mi NW 18.4 mph 25.3 mph N/A   Clear
10:35 AM - - N/A% 30.01 in 10.0 mi NW 15.0 mph 25.3 mph N/A   Clear
10:55 AM - - N/A% 30.01 in 10.0 mi NW 13.8 mph 23.0 mph N/A   Clear
11:15 AM - - N/A% 30.00 in 10.0 mi North 13.8 mph 19.6 mph N/A   Clear
11:35 AM - - N/A% 30.01 in 10.0 mi NW 15.0 mph 20.7 mph N/A   Clear
11:55 AM - - N/A% 30.01 in 10.0 mi NNW 16.1 mph 20.7 mph N/A   Clear
12:15 PM - - N/A% 30.01 in 10.0 mi NNW 13.8 mph 25.3 mph N/A   Clear
12:35 PM - - N/A% 30.02 in 10.0 mi NNW 15.0 mph 20.7 mph N/A   Clear
12:55 PM - - N/A% 30.01 in 10.0 mi NW 13.8 mph 24.2 mph N/A   Clear
1:15 PM - - N/A% 30.02 in 10.0 mi NNW 13.8 mph 23.0 mph N/A   Clear
1:35 PM - - N/A% 30.02 in 10.0 mi NW 13.8 mph 23.0 mph N/A   Clear
1:55 PM - - N/A% 30.02 in 10.0 mi NW 17.3 mph 23.0 mph N/A   Clear
2:15 PM - - N/A% 30.02 in 10.0 mi NNW 8.1 mph 23.0 mph N/A   Clear
2:35 PM - - N/A% 30.02 in 10.0 mi NW 13.8 mph 20.7 mph N/A   Clear
2:55 PM - - N/A% 30.02 in 10.0 mi NNW 20.7 mph 27.6 mph N/A   Clear
3:15 PM - - N/A% 30.02 in 10.0 mi NNW 18.4 mph 27.6 mph N/A   Clear
3:35 PM - - N/A% 30.03 in 10.0 mi North 13.8 mph 29.9 mph N/A   Clear
3:55 PM - - N/A% 30.03 in 10.0 mi NNW 16.1 mph 26.5 mph N/A   Clear
4:15 PM - - N/A% 30.03 in 10.0 mi NNW 13.8 mph 21.9 mph N/A   Clear
4:35 PM - - N/A% 30.03 in 10.0 mi NNW 15.0 mph 24.2 mph N/A   Clear
4:55 PM - - N/A% 30.04 in 10.0 mi NNW 13.8 mph 23.0 mph N/A   Clear
5:15 PM - - N/A% 30.04 in 10.0 mi NW 15.0 mph 19.6 mph N/A   Clear
5:35 PM - - N/A% 30.04 in 10.0 mi NW 16.1 mph 20.7 mph N/A   Clear
5:55 PM - - N/A% 30.04 in 10.0 mi North 12.7 mph 27.6 mph N/A   Clear
6:15 PM - - N/A% 30.05 in 10.0 mi NNW 11.5 mph 20.7 mph N/A   Clear
6:35 PM - - N/A% 30.05 in 10.0 mi NNW 11.5 mph 19.6 mph N/A   Clear
6:55 PM - - N/A% 30.05 in 10.0 mi NNW 13.8 mph 19.6 mph N/A   Clear
7:15 PM - - N/A% 30.06 in 10.0 mi North 11.5 mph 17.3 mph N/A   Clear
7:35 PM - - N/A% 30.06 in 10.0 mi NNW 8.1 mph - N/A   Clear
7:55 PM - - N/A% 30.06 in 10.0 mi North 9.2 mph - N/A   Clear
8:15 PM - - N/A% 30.07 in 10.0 mi North 11.5 mph - N/A   Clear
8:35 PM - - N/A% 30.07 in 10.0 mi North 8.1 mph - N/A   Clear
8:55 PM - - N/A% 30.08 in 10.0 mi North 9.2 mph - N/A   Clear
9:15 PM - - N/A% 30.09 in 10.0 mi North 4.6 mph - N/A   Clear
9:35 PM - - N/A% 30.11 in 10.0 mi North 4.6 mph - N/A   Clear
9:55 PM - - N/A% 30.11 in 10.0 mi North 4.6 mph - N/A   Clear
10:15 PM - - N/A% 30.12 in 10.0 mi North 4.6 mph - N/A   Clear
10:35 PM - - N/A% 30.13 in 10.0 mi North 4.6 mph - N/A   Clear
10:55 PM - - N/A% 30.14 in 10.0 mi Calm Calm - N/A   Clear
11:15 PM - - N/A% 30.14 in 10.0 mi Calm Calm - N/A   Clear
11:35 PM - - N/A% 30.15 in 10.0 mi Calm Calm - N/A   Clear
11:55 PM - - N/A% 30.15 in 10.0 mi Calm Calm - N/A   Clear